Theta_e
310 310 311 311 312 313 314 314 313 313 313 313 313 313 313 313 313 313 313 312 312 312 312 311 311 311 310 309 309 307 306 305 304 303 303 302 300 298 297 297 296 296 296 296 296 296 296 295 295 295 295 295 295 294 294 294 294 294 293 293 293 292 291 291 290 292 295 295 294 294 293 293 293 293 291 291 291 290 290 290 289 289 289 289 289
311 312 313 313 314 313 313 313 313 313 313 313 313 313 313 313 313 312 312 312 312 311 311 311 310 309 308 307 306 305 304 304 303 303 301 299 298 297 296 296 296 296 296 296 296 296 296 295 295 295 295 295 295 294 294 294 294 293 293 292 292 292 291 290 290 290 292 294 294 293 292 291 291 291 290 289 289 289 289 289 289 289 289 289 289
313 313 313 313 313 313 313 313 313 313 313 313 313 313 313 313 312 312 312 311 311 310 310 309 308 307 306 305 304 304 304 303 302 300 298 297 296 296 296 296 296 296 296 296 296 295 295 295 295 295 295 294 294 294 293 293 293 292 292 292 291 291 290 289 289 289 289 291 293 292 291 290 290 289 289 288 288 288 288 288 288 289 288 289 290
313 313 313 313 313 313 313 313 313 313 313 313 313 313 312 312 312 311 311 311 310 309 308 307 306 305 304 303 303 303 303 301 299 298 296 296 296 296 296 296 296 296 296 295 295 295 295 295 295 294 294 294 293 293 292 292 292 291 291 291 290 290 289 288 288 288 288 289 291 292 290 289 289 288 288 288 288 288 288 288 288 289 289 289 290
313 313 313 313 313 313 313 313 313 313 313 313 312 312 312 311 311 311 310 310 309 308 307 306 304 303 303 303 303 302 301 299 297 296 296 296 296 296 295 295 295 295 295 295 294 294 294 294 294 293 293 293 292 292 292 292 291 291 291 290 290 289 289 288 287 287 287 287 289 290 289 289 288 288 288 289 289 288 288 288 288 289 289 290 290
314 313 313 313 313 313 313 313 313 313 312 312 312 312 311 311 311 310 309 308 307 306 305 304 303 303 303 302 301 300 298 297 297 296 296 295 295 295 295 294 294 294 294 294 294 294 293 293 293 292 292 292 292 292 292 291 291 290 290 289 289 288 288 288 287 287 287 287 287 288 288 288 288 287 288 288 289 289 288 288 288 289 289 289 289
313 313 313 313 313 313 313 313 313 312 312 312 311 311 310 310 310 308 306 306 305 304 303 303 302 302 302 301 299 298 297 297 296 296 295 295 295 294 294 294 294 294 294 294 293 293 293 292 292 292 292 292 291 291 291 290 290 289 289 288 288 288 287 287 287 286 286 287 287 287 287 287 287 288 287 288 288 288 288 289 288 288 288 288 289
313 313 313 313 313 313 313 312 312 312 311 311 310 310 310 309 307 306 305 304 303 303 302 302 301 301 300 299 298 297 296 296 296 295 295 294 294 294 294 294 294 294 293 293 293 293 292 292 292 292 292 291 291 290 290 290 289 289 288 287 287 287 287 287 286 286 286 286 287 287 287 287 287 287 287 287 287 287 288 288 288 288 288 288 288
313 312 313 312 312 312 312 312 311 311 311 310 310 309 308 306 305 305 304 303 302 302 301 301 300 299 298 298 297 296 296 295 295 295 294 294 294 294 293 293 293 293 293 293 293 292 292 292 292 292 291 291 290 290 289 289 288 288 288 287 287 287 287 287 287 287 286 287 287 287 287 287 287 287 287 287 287 287 287 287 287 287 287 286 286
312 312 312 312 312 312 312 311 311 310 310 309 308 307 305 304 304 303 302 302 301 301 300 299 299 298 297 296 296 295 295 295 294 294 294 294 293 293 293 293 293 292 293 292 292 292 292 292 292 291 291 291 290 290 289 289 288 288 287 287 287 287 287 287 287 287 286 286 286 286 286 286 286 286 286 286 286 286 285 285 285 285 285 285 286
312 312 312 312 312 311 311 311 310 310 309 308 307 305 304 303 302 302 301 300 300 299 298 298 298 297 296 295 295 295 294 294 294 294 294 293 293 293 292 292 292 292 292 292 292 292 292 292 292 291 290 290 290 289 289 288 288 287 287 287 287 287 287 287 287 286 285 285 285 285 285 285 286 285 285 285 285 285 284 284 285 285 285 285 286
312 312 312 312 311 311 311 311 310 309 307 306 305 304 303 302 301 300 300 299 299 298 297 297 296 295 295 295 294 294 294 294 294 293 293 293 293 292 292 292 292 292 292 292 292 292 292 291 291 290 290 289 289 289 289 288 288 287 287 287 287 287 287 286 286 285 285 284 284 285 285 284 285 285 284 284 284 284 284 284 284 285 285 285 285
312 312 311 311 311 311 310 310 309 307 305 304 303 302 302 301 300 300 299 298 298 297 296 296 295 295 294 294 294 294 294 293 293 293 293 292 292 292 292 292 292 292 292 292 292 291 291 291 290 290 289 289 289 289 288 288 288 287 287 287 287 288 287 286 285 284 284 283 284 284 284 284 284 284 283 283 283 284 284 284 285 285 285 285 285
311 311 311 311 310 310 310 308 307 305 304 302 302 301 301 300 299 299 298 297 297 296 295 295 294 294 294 294 294 294 293 293 293 293 292 292 292 292 292 291 291 291 291 291 291 291 291 290 290 289 289 288 288 288 288 288 287 287 287 287 288 288 288 287 286 285 283 283 283 283 283 283 283 283 283 283 284 284 284 285 285 285 285 285 285
311 311 310 310 310 309 308 307 305 304 302 301 301 300 300 299 298 298 297 296 296 295 295 294 294 294 294 294 293 293 293 293 292 292 292 292 292 291 291 291 291 291 291 291 291 290 290 290 289 288 288 288 288 288 287 287 287 287 287 287 288 288 288 287 285 284 284 283 283 283 283 283 283 283 283 284 284 284 284 284 285 285 285 285 285
311 310 310 309 309 308 307 305 304 303 302 301 300 299 299 298 297 297 296 296 295 294 294 294 293 293 293 293 293 292 292 292 292 292 292 291 291 291 291 291 291 291 291 290 290 290 290 289 288 288 288 287 287 287 287 287 287 287 287 288 288 288 288 287 285 284 284 283 283 283 283 283 283 283 283 284 284 284 284 284 284 285 285 285 285
310 310 309 309 308 307 305 304 303 301 301 300 299 299 298 297 296 296 295 295 294 294 293 293 293 293 292 292 292 292 292 292 292 291 291 291 291 291 291 291 291 291 290 290 290 289 289 289 288 288 288 287 287 287 287 287 287 287 287 288 288 288 288 287 287 286 285 284 283 283 284 284 283 283 283 283 284 284 284 284 284 285 285 285 286
309 309 308 308 307 306 304 302 301 300 300 299 299 298 297 296 296 295 295 294 294 293 293 293 292 292 292 291 291 291 292 291 291 291 290 290 290 290 290 290 290 290 290 289 289 289 289 288 288 288 287 287 286 287 287 287 287 286 286 286 286 287 287 287 287 287 287 286 285 284 284 284 283 283 283 283 283 283 283 284 284 284 285 285 285
309 308 308 307 305 304 302 300 300 299 299 299 298 297 296 296 295 295 294 294 293 293 292 292 292 291 291 291 291 291 291 291 290 290 290 290 290 290 290 290 290 289 289 289 289 289 288 288 287 287 287 287 286 286 286 286 285 284 284 284 284 285 285 285 285 285 285 286 286 285 285 284 284 283 283 283 283 282 283 283 283 284 284 285 285
308 307 305 304 303 302 300 299 298 298 298 298 297 296 295 295 295 294 294 293 293 292 292 291 291 291 291 291 291 291 291 290 290 290 290 290 290 290 290 289 289 289 289 289 289 288 288 288 287 287 287 287 286 286 286 286 284 283 283 283 283 283 283 283 284 284 284 284 285 285 285 284 284 283 283 283 283 282 282 283 283 283 284 284 285
306 304 303 301 301 300 299 298 297 297 297 296 296 295 295 295 294 294 293 293 292 292 291 291 291 291 290 290 290 290 290 290 290 289 289 289 289 289 289 289 289 289 289 288 288 288 288 287 287 287 287 286 286 286 286 286 284 284 284 283 282 282 282 283 284 284 284 284 284 284 284 284 284 283 283 283 283 283 283 283 283 283 284 284 284
305 303 301 300 299 299 298 297 296 296 296 295 295 295 294 294 294 293 293 292 292 291 291 290 290 290 290 290 290 290 290 289 289 289 289 289 289 289 289 288 288 288 288 288 287 287 287 287 287 287 286 286 286 286 286 285 285 284 284 284 283 283 283 283 283 283 284 284 284 284 284 283 283 283 283 283 283 283 283 283 283 283 283 284 284
304 301 300 299 298 297 297 296 296 295 295 295 294 294 294 294 293 292 292 292 291 291 290 290 290 290 290 290 289 289 289 289 289 288 288 288 288 288 288 288 288 288 287 287 287 287 287 287 286 286 286 286 286 285 285 285 285 285 284 284 284 284 283 283 284 284 284 284 283 283 283 283 283 283 283 283 283 283 283 282 282 282 283 284 284
301 299 298 298 297 296 296 295 295 295 294 294 294 294 293 293 293 292 292 291 291 290 290 290 290 290 289 289 289 289 289 288 288 288 288 288 288 288 288 287 287 287 287 287 287 287 286 286 286 286 286 286 285 285 285 284 284 285 285 285 284 284 284 284 284 283 283 283 283 283 283 283 283 282 282 282 282 282 282 282 282 282 283 284 284
299 298 297 297 296 296 295 295 294 294 294 294 294 293 293 293 292 291 291 291 291 292 291 290 289 289 289 289 288 288 288 288 288 288 288 288 288 287 287 287 287 287 287 287 286 286 286 286 286 286 286 285 285 285 285 285 285 285 285 284 284 284 284 284 283 282 282 282 282 283 283 283 282 281 281 281 281 282 282 282 282 282 283 283 284
298 297 296 296 295 295 295 294 294 294 294 293 293 293 292 292 291 292 293 293 293 292 290 289 289 288 288 288 288 288 288 288 288 288 288 288 287 287 287 287 287 286 286 286 286 286 286 285 286 286 285 285 285 284 284 285 285 285 284 284 284 283 283 282 282 281 281 282 282 282 283 282 281 281 280 280 281 281 281 281 281 282 282 283 284
297 296 296 295 295 294 294 294 294 293 293 293 292 292 292 293 295 296 295 294 292 290 289 289 288 288 288 288 288 288 288 288 288 288 287 287 287 287 287 287 286 286 286 286 286 285 285 285 285 285 285 284 284 284 284 284 284 284 284 283 283 283 282 281 280 280 281 281 282 282 283 282 281 281 281 280 280 280 280 280 281 281 282 282 283
296 296 295 295 294 294 294 293 293 294 293 292 292 293 296 298 298 296 293 291 290 289 289 288 288 288 288 288 288 288 288 288 287 287 287 287 287 287 286 286 286 286 286 286 285 285 285 285 285 285 285 284 284 284 284 284 283 283 283 283 283 282 282 281 281 281 281 281 282 283 282 281 280 280 280 279 279 280 280 280 280 281 281 282 282
295 295 295 294 294 294 293 293 293 293 292 293 295 299 300 298 295 292 291 290 289 289 288 288 288 288 288 288 288 288 287 287 287 287 287 286 286 286 286 286 285 285 285 285 285 284 284 284 284 284 284 284 284 284 284 284 283 283 282 282 282 282 281 281 281 281 281 281 282 282 280 279 280 280 279 279 279 279 279 280 280 280 281 281 281
295 294 294 294 294 293 293 293 292 292 294 297 300 300 297 294 291 290 290 289 288 288 288 288 288 288 288 288 288 287 287 287 287 286 286 286 286 285 285 285 285 285 284 284 284 284 284 284 284 284 283 283 283 283 283 283 283 283 283 282 282 281 281 281 281 281 281 282 282 281 279 278 278 277 277 278 278 278 279 279 279 280 280 280 280
295 295 294 294 293 293 293 293 293 294 297 299 300 298 294 292 291 290 289 288 288 288 288 288 288 288 288 287 287 287 287 286 286 286 286 286 285 285 285 285 284 284 284 284 283 283 283 283 283 283 283 282 281 281 281 281 281 282 283 283 282 281 280 280 280 280 281 282 282 281 280 278 276 276 276 276 276 277 278 279 279 279 279 279 279
295 295 294 294 293 293 293 293 294 297 299 300 298 295 292 291 290 289 288 288 288 287 287 288 288 288 287 287 287 286 286 286 286 286 285 285 285 285 284 284 284 284 283 283 282 282 283 283 283 282 282 281 280 280 279 279 280 280 281 282 282 281 280 279 279 280 281 281 281 281 280 278 277 276 276 276 276 276 277 278 278 278 279 279 279
294 294 294 294 293 293 293 294 296 299 299 298 295 292 291 290 289 289 288 288 287 287 287 287 287 287 287 287 286 286 286 285 285 285 285 285 285 284 284 284 284 283 283 282 282 282 282 282 282 282 281 280 279 279 278 278 279 279 279 280 280 279 279 278 279 279 280 280 280 280 279 279 278 277 276 276 276 276 276 277 277 278 278 278 278
293 293 293 293 294 293 294 295 297 298 296 294 292 290 290 289 289 288 288 288 287 287 287 287 287 287 287 286 286 286 285 285 285 285 285 284 284 284 283 283 283 283 282 282 282 282 282 282 282 282 281 280 279 279 278 278 278 278 278 278 278 278 278 278 278 279 279 279 279 279 278 278 278 277 276 276 276 276 276 276 277 277 277 277 277
293 293 293 293 293 293 294 295 295 294 292 291 290 290 289 288 288 287 287 287 287 287 287 287 287 286 286 286 285 285 285 285 284 284 284 284 284 283 283 283 282 282 282 282 281 281 281 282 282 281 280 280 279 278 278 278 278 278 278 278 278 278 278 278 278 278 279 278 278 277 277 277 277 276 276 276 276 276 276 276 276 277 277 277 277
293 293 293 292 292 292 293 293 292 291 291 290 290 289 288 288 287 287 287 287 287 287 287 286 286 286 286 285 285 285 284 284 284 284 283 283 283 283 283 282 282 282 282 281 281 281 281 281 281 280 280 279 278 278 278 277 277 278 278 278 278 278 278 278 278 278 278 277 277 276 276 277 277 277 276 276 276 276 276 276 276 276 276 276 276
293 293 293 292 292 291 291 291 290 290 290 289 289 288 288 287 287 287 287 286 286 286 286 286 286 286 285 285 285 284 284 284 283 283 283 283 283 283 282 282 282 282 281 281 281 280 280 280 280 280 279 279 278 278 277 277 277 277 278 278 278 278 278 278 278 278 278 277 277 276 276 277 277 277 277 276 276 276 276 276 276 276 276 276 276
293 292 292 292 292 292 291 290 290 289 289 288 288 288 287 287 287 286 286 286 286 286 286 286 286 285 285 285 284 284 283 283 283 283 283 282 282 282 282 282 282 282 281 281 280 280 280 280 279 279 279 278 278 277 277 277 277 277 278 278 278 278 277 277 277 278 278 278 277 277 276 276 277 277 277 277 277 276 276 276 276 276 276 276 275
292 292 292 292 291 291 291 290 289 289 288 288 288 287 287 287 286 286 286 286 286 286 286 286 286 285 285 284 284 283 283 283 283 282 282 282 282 282 282 282 281 281 281 280 280 280 279 279 279 279 279 278 278 277 277 277 277 277 277 277 278 278 277 277 277 277 278 278 278 277 277 277 277 277 277 277 277 277 276 276 276 275 275 275 275
292 292 292 291 291 290 290 289 289 288 288 288 287 287 287 286 286 286 285 285 285 285 285 285 285 285 284 284 283 283 283 282 282 282 282 282 282 281 281 281 281 281 280 280 279 279 279 279 278 278 278 278 277 277 277 276 277 277 277 277 277 277 277 277 277 277 277 277 277 277 277 277 278 278 278 278 277 277 277 276 276 275 275 275 275
292 291 291 291 291 290 289 289 289 288 288 287 287 287 286 286 285 285 285 285 285 285 285 285 284 284 283 283 283 282 282 282 282 282 281 281 281 281 280 280 280 280 280 280 279 279 278 278 278 278 278 278 277 277 276 276 276 276 276 276 277 277 277 277 276 277 277 277 277 277 277 278 278 278 278 278 278 278 277 277 276 276 275 275 275
291 291 291 291 290 290 289 289 289 288 287 286 286 286 286 285 285 284 284 284 284 284 284 284 284 283 283 283 282 282 281 281 281 281 281 280 280 280 280 280 280 279 279 279 279 278 278 277 277 277 277 277 277 277 276 276 276 276 276 276 276 276 276 276 276 276 277 277 277 277 277 277 277 278 278 278 278 278 278 277 276 276 275 275 275
291 291 290 290 290 290 289 289 288 288 287 286 286 286 285 285 285 284 285 284 284 284 283 283 283 283 282 282 281 281 281 280 280 280 280 280 280 279 279 279 279 279 279 278 278 278 277 277 277 277 277 277 277 276 276 276 275 275 276 276 276 276 276 276 276 276 276 277 277 276 276 277 277 278 278 278 278 278 278 278 277 276 275 275 275
290 290 290 290 290 289 289 288 288 287 287 286 286 285 285 285 285 285 285 284 284 283 283 283 283 282 282 281 281 280 280 280 280 279 279 279 279 279 278 278 278 278 278 278 277 277 277 277 276 276 276 276 276 276 276 275 275 275 275 275 275 275 275 275 276 276 276 276 276 276 276 276 276 277 277 278 278 278 278 278 277 276 276 275 275
290 290 289 289 289 288 288 287 287 286 286 285 285 285 285 285 285 285 284 284 283 283 283 282 282 281 281 280 280 279 279 279 279 278 278 278 278 278 278 277 277 277 277 276 276 276 276 276 276 276 276 276 276 276 276 275 275 275 275 275 275 275 275 275 275 275 275 275 275 275 275 275 276 276 277 277 278 278 278 278 277 277 276 276 275
289 289 289 289 288 288 287 287 286 286 285 285 285 285 285 285 285 284 284 283 283 282 282 281 281 281 280 280 279 278 278 278 278 278 278 277 277 277 277 277 276 276 276 275 275 275 275 275 275 275 274 274 275 275 275 275 275 275 275 274 274 274 274 274 275 275 275 274 274 275 275 275 275 275 276 276 277 277 277 277 277 277 277 276 276
288 288 288 288 287 287 286 286 285 285 285 285 285 285 285 285 285 285 284 283 283 282 282 281 281 280 280 279 278 278 277 277 277 277 277 277 277 277 276 276 276 275 275 275 275 275 274 274 274 274 274 273 273 274 274 274 275 275 275 274 274 274 274 274 274 274 274 274 274 274 274 275 275 275 275 276 276 277 277 277 277 277 277 277 276
288 287 287 287 287 286 286 285 285 285 285 285 285 285 285 286 285 284 283 283 282 282 281 281 281 280 279 278 278 277 277 277 276 276 276 276 276 276 276 276 275 275 275 275 274 274 274 274 274 274 273 273 273 273 273 273 273 274 274 274 274 274 274 274 274 274 274 274 274 274 274 274 275 275 275 275 276 276 276 277 277 276 276 277 276
288 287 287 286 286 286 285 285 285 285 285 285 285 285 285 285 284 283 283 283 282 282 281 281 280 279 278 278 277 277 277 276 276 276 276 276 276 276 275 275 275 275 274 274 274 274 274 274 273 273 273 273 273 273 273 273 273 273 273 273 273 273 273 273 273 274 273 273 273 273 274 274 274 274 275 275 275 276 276 276 276 276 276 276 276
287 286 286 285 285 285 284 284 284 284 284 284 284 285 285 284 284 283 283 282 281 281 281 280 279 278 277 277 277 277 276 276 275 275 275 275 275 275 275 275 274 274 274 274 274 274 273 273 273 273 273 273 273 273 273 273 273 273 273 272 272 272 272 272 272 273 273 273 273 273 273 274 274 274 274 274 275 275 275 275 276 276 276 276 276
286 285 284 285 284 284 283 283 283 283 283 283 284 284 284 284 283 283 282 282 281 281 280 280 278 277 277 276 276 276 275 275 275 275 275 275 275 274 274 274 274 274 274 274 274 274 274 273 273 273 273 273 272 272 272 272 273 273 273 272 272 272 271 271 271 271 272 272 272 273 273 273 273 274 274 274 274 274 275 275 275 275 275 275 275
Wind_Speed
24 25 25 25 24 24 25 25 25 25 24 22 20 17 15 13 12 12 11 11 10 10 10 9 9 8 7 6 5 5 4 3 2 2 3 4 4 4 5 5 5 7 8 10 11 13 15 16 18 20 21 23 24 26 28 29 31 32 32 34 35 34 34 36 40 52 60 60 60 62 61 61 62 61 60 60 60 58 58 58 56 56 56 56 57
23 24 24 26 26 26 26 26 26 25 23 21 18 16 15 14 14 13 13 13 12 12 11 10 10 9 8 7 6 5 4 3 3 4 5 5 5 5 5 6 7 9 10 12 14 16 18 19 20 23 24 26 27 28 30 31 32 34 34 34 36 35 34 35 39 47 56 61 62 62 62 60 61 62 60 59 60 60 60 59 57 57 58 57 57
25 25 26 28 28 27 27 27 26 24 21 19 18 17 16 16 15 15 15 14 14 13 12 11 10 9 8 7 6 4 4 4 4 5 6 6 6 6 7 8 10 12 13 15 17 18 19 21 22 24 26 27 28 29 30 31 32 34 35 34 35 36 35 34 37 42 50 59 63 64 63 62 63 62 60 58 58 58 60 60 58 58 58 57 56
27 27 28 28 28 28 27 26 23 21 20 19 18 18 18 18 17 17 16 15 14 14 13 12 11 9 8 7 5 4 4 5 5 6 6 6 7 8 10 11 12 14 15 16 17 19 20 22 23 25 27 27 28 29 30 32 33 34 36 36 36 37 37 35 36 39 45 54 62 64 64 63 64 62 58 57 58 57 57 58 58 57 58 56 54
28 28 28 28 28 27 25 23 22 21 20 20 20 20 19 19 19 18 17 16 15 14 13 12 11 9 8 7 6 5 6 6 6 6 7 8 9 10 12 12 13 14 15 16 18 20 22 23 25 26 27 29 30 31 33 34 35 36 37 38 39 39 40 39 39 39 42 49 58 63 63 63 64 62 56 53 55 57 57 57 57 55 55 55 53
28 28 27 27 26 25 23 22 22 22 21 21 21 21 21 20 19 19 17 16 15 15 13 12 11 9 8 7 6 6 7 7 7 7 8 9 10 11 12 13 14 14 16 18 19 21 23 24 26 27 28 31 32 34 35 36 37 39 39 41 41 42 43 42 41 41 43 47 52 57 60 61 61 61 58 52 51 54 55 57 58 55 53 55 56
27 27 26 25 24 23 23 23 23 23 22 22 22 22 21 20 19 19 18 16 15 15 13 12 10 9 7 7 7 7 7 7 8 8 9 10 11 12 13 14 15 16 17 19 20 22 23 24 26 28 30 32 33 35 37 38 40 41 41 42 43 43 44 43 42 42 43 46 49 51 55 58 57 58 59 55 51 50 49 51 57 59 57 57 58
27 26 25 25 24 24 24 24 24 24 23 23 22 22 21 20 19 19 18 17 16 14 13 11 10 8 7 7 7 7 7 8 9 9 10 11 11 12 14 15 17 18 19 20 21 22 24 26 28 29 31 32 34 36 37 39 41 42 42 42 43 43 44 43 42 42 43 45 48 49 50 54 56 57 58 56 54 53 51 50 54 58 58 59 61
26 26 26 26 25 25 25 25 25 24 24 23 22 22 21 21 20 19 18 18 16 14 12 11 9 9 8 7 7 7 8 8 9 10 11 11 12 13 15 17 19 20 20 20 22 24 26 27 29 30 31 33 35 36 38 39 40 42 42 41 41 42 42 43 42 42 42 43 46 47 48 52 54 55 56 55 54 55 54 53 54 56 57 60 63
27 27 27 26 26 26 26 26 25 25 24 23 23 22 22 21 20 20 18 17 15 13 12 11 9 9 8 7 7 7 8 9 10 11 12 12 14 15 17 18 19 21 22 23 25 26 27 28 29 31 32 34 36 37 38 39 39 40 40 40 40 39 40 41 41 39 38 38 42 45 47 50 52 52 54 54 53 54 55 55 56 58 59 60 62
27 27 27 27 27 27 27 26 26 25 25 24 24 23 23 22 20 19 17 15 14 13 11 10 9 8 7 7 8 8 9 10 11 12 12 13 15 16 18 19 20 22 24 26 27 27 28 29 30 32 34 35 37 38 39 39 39 39 39 37 36 36 36 37 39 39 37 37 40 43 45 48 51 52 53 54 54 55 56 57 58 59 58 58 60
28 28 28 27 28 28 27 27 27 26 26 26 25 24 23 22 20 18 17 15 14 12 11 10 9 8 8 8 9 9 9 10 11 12 13 15 16 18 19 21 22 24 26 27 27 28 29 30 32 33 35 36 38 39 40 40 40 39 38 37 35 35 34 34 35 36 36 37 40 43 44 46 49 51 52 53 54 55 56 56 56 57 57 56 58
29 29 29 29 29 29 29 29 28 28 28 27 26 25 23 22 20 18 17 15 13 12 11 10 9 9 9 9 9 9 9 10 11 13 15 16 17 19 20 22 24 26 26 26 27 28 30 32 33 34 36 37 39 40 40 40 40 39 38 37 37 37 36 35 33 32 33 35 38 41 44 45 47 51 51 51 53 54 54 55 56 56 57 57 58
31 31 31 31 31 30 30 30 29 29 29 27 26 25 23 21 20 18 16 14 13 12 11 11 10 10 9 9 9 9 10 11 12 14 16 17 19 20 21 23 25 25 25 26 27 29 31 33 34 36 37 38 38 39 40 40 40 40 39 38 38 38 38 38 37 35 34 33 35 40 43 44 46 49 51 50 51 52 51 53 54 55 56 56 57
33 33 33 33 33 32 32 31 31 30 29 28 26 24 23 21 19 18 16 14 14 13 12 11 10 9 9 9 9 9 10 12 14 16 17 18 19 21 22 24 24 25 25 26 28 30 31 33 35 36 37 37 37 37 38 39 40 40 40 40 40 40 40 39 37 36 35 35 36 39 42 43 44 46 48 48 48 49 49 50 52 52 53 54 55
36 35 35 35 34 34 33 32 32 31 30 28 27 25 23 21 19 17 16 15 14 13 12 11 10 9 8 8 9 10 11 13 15 17 18 19 20 22 23 24 24 24 25 27 29 30 32 34 35 36 36 36 35 35 35 36 38 39 41 42 42 42 41 40 37 36 37 37 38 38 39 41 43 43 44 44 44 46 46 48 49 49 51 53 55
38 37 37 36 35 35 34 33 32 31 30 29 27 25 23 21 19 18 16 15 14 13 12 11 9 9 8 8 9 10 12 15 16 17 18 20 21 23 23 24 24 25 26 28 30 31 33 34 35 36 37 35 33 32 32 33 36 37 39 41 43 44 43 42 40 40 40 40 40 39 40 42 43 43 43 42 41 42 43 46 47 47 49 53 54
40 39 38 37 36 35 35 34 32 31 30 28 26 25 23 21 19 18 17 15 14 13 12 10 9 9 8 8 10 11 14 15 17 18 19 21 23 23 23 24 25 26 27 29 31 32 34 34 35 35 36 35 33 31 30 31 34 35 37 39 41 43 44 44 44 45 45 44 43 42 43 43 43 43 44 43 41 39 40 43 45 46 48 51 52
40 39 38 38 37 36 35 34 32 31 29 28 26 24 22 21 19 18 16 15 14 13 12 10 9 9 9 9 11 13 15 16 17 19 20 22 23 23 24 25 26 27 29 30 32 33 34 35 34 34 34 33 31 30 30 30 31 32 34 35 38 41 42 43 45 45 45 46 46 47 47 46 45 44 45 44 42 40 40 41 43 44 47 49 51
40 40 39 38 38 36 35 34 32 31 29 27 25 24 22 21 19 18 16 15 14 13 11 10 10 9 9 10 12 14 16 17 18 20 21 22 23 23 24 25 27 28 30 31 33 34 35 35 34 33 32 31 30 30 30 29 29 30 31 32 34 36 38 40 41 41 42 44 46 48 49 48 47 46 46 45 45 44 43 43 42 43 45 47 48
41 40 39 39 38 37 36 34 32 30 28 27 26 24 23 21 19 17 16 15 14 13 12 11 10 9 10 11 13 15 17 18 18 20 21 21 22 23 24 26 27 29 31 32 33 34 35 35 34 32 31 30 30 30 31 30 29 30 30 30 30 31 33 36 37 38 39 42 44 46 47 47 46 47 47 47 46 46 45 44 43 43 43 44 46
41 40 40 39 38 37 36 34 32 31 29 27 26 24 22 20 18 17 16 15 14 12 12 11 10 10 11 13 14 16 17 18 19 19 20 21 22 23 25 26 27 29 31 32 33 34 35 35 34 32 31 30 29 30 30 31 31 30 30 29 29 30 31 33 34 35 37 39 41 43 44 45 46 48 48 48 47 47 46 46 44 42 42 42 43
42 42 41 41 39 38 36 34 32 30 29 27 25 23 22 20 18 17 16 14 13 13 12 11 11 12 13 14 15 16 17 18 19 19 20 21 22 23 24 25 27 28 30 32 33 34 34 34 33 31 30 29 29 30 30 30 30 30 30 30 30 31 31 31 32 33 35 37 39 41 43 45 46 48 48 49 49 49 48 47 45 43 42 42 41
43 43 42 41 39 38 36 34 32 30 29 27 25 23 21 19 18 16 15 14 13 12 12 13 13 14 14 14 15 16 17 18 19 19 20 21 22 23 24 25 26 27 29 30 32 33 33 33 31 30 30 29 30 30 29 29 29 29 29 30 30 30 31 31 32 33 35 37 38 41 43 45 45 47 48 49 50 50 49 48 46 43 42 41 40
44 43 42 41 39 38 36 34 32 30 28 27 24 22 20 18 17 16 14 13 13 14 15 16 15 15 14 14 14 15 17 18 19 20 21 21 22 22 23 24 25 27 28 30 31 31 31 30 30 29 29 30 30 30 30 29 28 28 28 29 30 30 30 31 32 33 35 37 38 41 43 44 44 46 47 47 48 48 48 48 47 44 42 40 39
44 43 43 41 39 37 36 34 32 30 28 26 24 21 19 17 16 15 14 15 16 18 18 18 16 15 14 13 14 15 17 18 19 19 20 21 21 22 23 24 25 26 28 29 29 29 29 29 30 30 30 30 30 30 30 29 29 28 28 28 29 30 30 31 32 33 34 36 39 42 43 43 44 45 45 45 44 44 45 46 46 45 43 41 39
44 44 42 41 39 37 36 34 33 30 28 26 23 21 18 16 14 15 16 18 20 20 20 18 16 15 14 14 15 16 17 18 19 19 20 21 22 23 24 25 26 27 27 28 29 29 29 29 29 29 29 29 29 28 29 29 29 29 29 29 30 30 30 30 31 32 34 37 40 42 42 42 44 44 43 42 43 42 42 43 44 44 42 40 39
44 43 42 40 39 37 35 34 32 30 28 25 22 19 16 15 16 18 20 22 22 21 20 17 15 15 15 16 16 17 17 18 19 20 21 22 23 24 24 25 26 27 27 28 28 28 28 28 28 28 28 28 28 28 28 29 30 30 31 30 30 31 31 31 31 33 35 37 40 41 41 41 42 42 42 41 41 40 40 41 41 41 40 38 37
43 42 41 40 38 37 35 33 31 29 26 23 20 17 17 17 19 21 23 24 23 21 19 17 15 16 17 17 17 17 17 18 19 20 21 21 22 23 24 24 25 26 26 26 26 27 27 27 28 28 29 29 29 30 30 30 31 31 32 32 31 32 32 32 33 34 35 38 40 40 39 40 41 42 42 41 40 39 40 41 41 40 38 36 35
43 42 41 40 38 37 35 33 31 28 25 22 19 19 19 21 24 26 26 24 22 21 19 17 16 17 17 17 17 18 18 18 19 19 19 20 20 21 22 22 23 24 24 24 24 25 26 26 27 27 28 29 30 31 31 32 32 33 33 33 33 33 32 32 33 34 36 38 39 38 37 38 41 42 42 42 41 41 41 40 40 39 38 36 36
44 43 42 40 39 37 35 33 31 28 24 22 21 22 24 27 28 28 26 24 22 20 19 18 18 17 16 16 17 17 18 18 18 18 19 19 19 19 20 21 21 22 22 23 23 24 25 25 25 26 27 29 30 31 31 32 33 34 34 34 34 33 33 33 33 34 36 37 38 38 37 37 39 40 41 42 42 41 41 40 39 39 38 36 36
44 44 42 41 39 37 35 34 31 27 25 25 26 28 30 31 30 28 26 24 23 21 20 19 18 17 16 16 16 16 16 16 17 17 18 18 18 18 19 20 20 20 21 21 21 22 23 24 24 25 26 27 28 29 30 31 32 33 34 34 35 34 33 33 34 34 35 36 37 38 38 37 37 38 40 40 40 41 41 40 39 39 38 36 35
44 43 42 41 39 38 36 33 30 28 28 29 31 32 32 32 30 28 26 25 24 22 21 19 17 16 16 16 16 15 15 15 15 16 17 17 17 17 17 18 19 20 20 19 19 20 22 23 23 24 25 26 27 28 29 30 31 32 32 33 34 34 33 32 33 34 35 35 36 36 37 37 36 37 38 38 39 39 39 39 39 39 38 36 35
43 42 41 40 39 38 36 33 32 32 32 33 33 32 32 31 29 28 27 26 25 23 21 19 17 16 16 15 15 15 14 14 14 15 16 16 16 16 17 17 18 19 19 19 19 20 21 22 23 24 25 26 27 27 28 28 29 30 31 31 32 32 32 32 32 33 35 35 35 35 36 36 35 36 38 38 38 38 38 38 38 39 38 37 35
43 41 40 39 39 38 36 35 35 35 34 33 33 33 32 30 29 29 28 27 26 24 22 20 18 16 15 15 14 14 14 14 14 14 15 15 15 15 16 16 16 16 17 17 18 19 21 22 22 23 24 25 26 26 27 27 27 28 29 30 31 31 32 33 33 34 34 35 34 35 36 36 34 34 36 37 38 38 38 38 38 38 37 35 34
43 42 41 40 39 38 37 36 35 34 34 34 34 33 32 30 30 30 29 28 26 25 23 20 18 16 15 15 14 13 13 13 13 13 14 15 15 15 16 16 16 16 17 17 17 18 19 20 21 22 23 24 24 25 25 25 25 25 26 27 29 30 31 32 33 34 34 34 34 34 35 35 34 34 35 36 36 36 37 37 36 35 34 33 31
44 43 43 41 40 39 38 36 35 35 35 35 35 34 32 32 32 31 30 29 27 25 24 22 19 17 16 15 14 13 12 12 12 12 13 14 15 16 17 18 18 18 18 18 17 17 17 18 19 20 22 23 23 23 23 23 22 23 24 25 26 28 29 30 31 32 33 33 33 33 34 34 34 34 35 36 35 35 36 36 35 34 32 31 29
44 44 43 42 41 40 40 39 38 38 38 37 36 35 34 34 33 32 31 29 27 26 24 22 20 17 16 15 14 13 12 12 12 12 13 14 15 16 18 19 19 18 18 17 17 17 17 17 18 19 20 21 22 22 22 21 21 22 23 24 25 26 27 29 29 30 30 31 31 32 32 33 33 33 34 34 34 34 34 34 34 33 31 29 28
45 44 43 43 42 42 42 41 40 40 39 38 37 36 35 34 34 33 31 29 28 26 25 22 20 18 16 14 14 13 13 12 12 12 13 15 16 17 18 18 18 18 17 17 16 16 16 16 16 17 19 20 20 21 21 20 20 21 22 24 24 25 26 28 29 29 29 30 30 31 32 32 32 31 32 32 32 32 32 33 32 31 30 28 26
46 45 45 44 44 43 43 42 41 40 39 39 38 37 36 36 34 32 30 29 28 27 25 22 20 18 16 15 15 14 14 13 13 13 14 16 16 17 18 18 18 18 17 16 16 15 15 15 15 16 17 19 20 20 20 20 21 21 22 23 24 25 26 27 28 28 29 29 30 30 31 32 32 30 30 31 30 30 30 30 30 29 27 25 24
46 46 46 45 45 45 44 43 43 42 41 40 39 38 37 35 32 30 29 28 28 26 24 22 19 18 17 16 16 15 15 14 14 14 15 16 16 17 17 18 18 18 18 17 16 15 14 14 15 15 17 18 20 21 21 21 21 22 22 23 24 24 25 26 27 27 27 28 29 29 29 30 31 30 29 29 29 28 28 27 27 26 24 22 21
47 47 47 47 47 47 46 46 44 43 42 40 39 38 36 33 30 30 29 28 27 26 24 21 20 19 18 17 17 16 15 14 15 15 15 16 16 17 17 18 18 19 19 19 18 16 15 14 14 15 16 18 19 21 21 22 22 22 22 23 24 25 26 26 26 27 27 27 27 28 28 29 30 29 28 27 27 27 27 26 25 23 22 20 19
48 48 48 48 48 48 47 46 45 44 43 42 40 38 35 32 31 31 30 29 28 26 24 22 21 19 19 18 18 17 16 15 15 15 15 16 16 17 17 17 18 19 19 19 19 18 17 16 15 15 16 17 19 21 22 23 23 23 23 24 24 25 26 26 26 26 27 27 27 27 27 28 29 29 28 26 25 25 25 25 23 22 20 18 17
50 50 50 50 49 48 48 47 45 44 43 41 39 37 34 32 32 32 32 31 29 27 25 24 22 21 20 19 18 17 16 16 16 16 16 16 16 16 16 17 17 18 18 19 19 19 19 18 17 16 16 17 18 20 21 22 23 23 24 24 24 25 25 26 26 26 26 27 27 27 27 27 27 28 28 26 24 23 24 23 23 21 19 17 15
51 52 52 51 50 49 48 47 45 44 43 41 39 37 35 34 34 33 33 31 30 28 27 25 23 21 20 19 19 18 17 17 17 16 16 15 15 15 15 15 15 16 16 17 18 18 18 18 18 17 16 16 17 18 20 21 21 22 23 23 24 24 24 25 25 25 25 26 27 27 27 27 26 26 27 26 24 22 22 22 21 20 18 16 14
53 53 53 52 51 50 49 48 46 45 43 42 40 38 36 36 35 34 33 32 31 30 28 26 23 22 20 20 19 19 18 18 17 17 16 15 14 14 14 13 13 14 14 15 16 16 17 17 18 17 17 17 17 17 19 20 21 22 22 22 23 23 23 24 24 23 23 24 25 25 26 25 25 25 25 24 23 21 20 19 19 19 17 16 14
52 53 53 53 52 50 49 48 47 45 44 43 41 39 38 37 36 36 35 34 33 31 29 26 24 22 21 20 20 20 19 18 18 17 15 14 14 13 12 12 12 12 13 14 15 15 16 17 17 17 17 17 17 17 18 19 20 21 22 22 22 22 22 23 23 23 22 22 23 24 24 24 23 23 23 23 22 21 19 17 17 17 16 15 14
51 54 54 53 52 51 50 49 48 47 46 44 42 40 39 38 38 37 36 35 34 32 29 26 24 23 22 21 21 20 19 19 18 16 15 14 13 12 12 12 12 12 12 13 14 15 16 17 18 18 18 18 18 17 18 18 19 21 22 22 22 22 22 22 22 22 22 22 22 22 23 22 22 22 21 21 20 20 19 17 15 14 14 14 14
48 53 54 54 53 52 51 50 50 49 47 44 42 41 40 39 39 38 37 35 34 32 29 27 25 24 22 21 21 20 19 18 17 16 15 14 13 13 13 12 12 13 13 13 14 16 17 18 19 19 19 19 19 19 19 19 19 20 21 22 22 22 22 22 22 22 22 22 21 21 21 21 21 20 20 20 19 18 18 17 15 13 12 11 12
46 51 53 54 53 52 52 51 50 48 45 43 42 41 41 40 39 38 37 35 34 32 30 28 26 24 23 22 21 20 19 18 17 16 15 14 14 13 13 13 13 14 14 15 16 17 18 19 20 20 21 21 21 20 20 20 20 20 20 21 21 22 22 22 21 21 21 22 22 21 21 21 20 20 19 19 18 17 16 15 14 13 12 10 9
43 48 52 54 53 52 52 51 49 47 45 44 43 42 42 41 40 38 36 35 34 32 30 27 25 24 23 22 21 20 19 19 18 17 16 15 15 14 14 14 15 15 16 16 17 18 19 21 21 22 22 22 22 22 22 21 21 21 21 21 21 21 22 22 21 21 21 21 21 21 21 21 20 20 19 18 17 16 15 14 14 13 12 10 9
Wind_Direction
206 206 204 200 195 189 186 183 179 178 178 176 174 171 169 172 174 177 179 178 178 179 180 181 183 185 185 189 191 189 194 202 226 268 294 307 312 313 315 320 323 324 328 330 330 330 330 331 329 328 328 330 331 331 329 328 326 325 324 323 321 322 322 318 313 307 304 305 306 305 307 307 307 308 310 310 311 311 310 310 310 310 309 308 307
192 190 189 185 182 180 178 177 175 176 176 173 171 171 173 175 177 178 179 179 177 178 182 182 182 186 188 191 192 192 206 231 262 288 299 303 304 306 311 320 325 328 330 330 329 329 330 330 329 328 327 328 328 328 325 324 323 321 320 319 317 317 318 314 310 306 304 305 306 305 306 308 308 309 311 311 312 313 312 312 312 311 310 310 309
180 178 178 176 175 176 176 177 177 175 173 172 173 175 177 177 178 179 180 181 180 179 181 183 185 189 190 191 195 204 231 260 278 290 294 296 302 309 317 323 326 328 328 327 327 327 327 328 328 326 325 325 325 324 323 322 321 319 318 318 316 314 314 312 308 306 304 305 306 307 308 310 309 310 312 313 313 313 313 313 313 312 311 310 309
174 174 174 174 174 177 178 178 176 174 174 177 178 178 180 180 178 179 181 183 183 182 183 186 188 189 189 195 209 225 250 269 279 287 293 302 312 316 321 323 324 326 326 327 328 327 328 328 327 326 325 325 325 324 323 323 321 320 319 318 317 316 315 313 310 308 306 305 306 308 309 310 310 311 313 313 313 313 312 312 312 311 311 310 309
175 176 177 178 178 179 179 178 177 178 179 180 181 181 181 181 179 179 183 184 184 185 188 188 188 191 198 210 227 246 262 272 278 288 299 308 314 316 319 322 324 328 329 330 330 330 330 329 329 328 328 327 327 326 325 324 323 322 321 320 320 319 317 316 314 311 308 306 306 308 309 310 311 312 313 313 313 313 313 312 312 312 312 311 309
179 180 182 182 182 181 181 182 182 183 183 183 183 182 181 181 180 180 182 185 187 188 188 189 192 199 212 226 242 256 265 274 281 292 302 306 311 316 319 324 326 329 331 331 332 332 331 331 330 330 330 329 328 328 327 327 326 325 324 323 322 321 319 318 317 314 310 307 307 308 310 312 312 312 314 314 313 313 314 314 314 312 311 310 309
184 185 186 186 186 186 185 186 186 185 185 184 183 182 181 182 182 182 182 186 190 191 191 195 201 209 222 236 249 260 268 278 287 295 302 306 311 316 320 324 327 329 331 332 332 332 331 331 331 330 330 330 330 330 329 329 327 327 326 325 323 322 320 319 318 315 312 310 309 308 310 312 312 312 314 315 313 312 313 313 312 312 312 311 309
190 189 189 189 190 190 189 188 187 186 185 185 183 183 183 183 183 185 187 190 192 194 197 202 208 217 229 240 250 263 272 282 291 297 301 306 311 316 320 324 326 328 331 332 332 332 331 331 331 331 332 332 332 332 331 329 328 327 327 326 323 322 320 319 318 317 316 313 312 311 311 311 312 312 314 316 315 314 314 312 311 311 312 311 308
196 195 194 193 193 192 191 188 186 185 185 184 184 184 184 184 186 190 191 192 194 197 201 207 214 223 232 243 253 264 276 284 290 292 297 305 312 318 322 323 326 328 330 332 332 332 332 332 333 334 334 334 334 332 330 329 327 326 325 324 323 322 321 321 320 319 318 315 313 312 311 310 311 313 314 314 313 313 314 313 311 310 310 309 307
201 199 196 195 194 193 192 189 186 186 185 186 186 185 186 187 190 192 192 192 196 200 205 210 218 227 233 244 255 265 275 280 285 290 298 308 314 319 322 323 326 328 330 332 333 333 334 334 335 336 335 334 333 330 329 327 326 325 324 323 324 324 323 322 321 319 316 313 311 311 310 309 311 312 311 311 312 312 313 312 310 310 311 311 310
203 201 199 197 196 194 193 190 188 188 188 188 188 188 190 191 192 193 192 195 199 203 208 214 219 227 232 241 251 259 269 276 284 295 304 311 316 319 321 324 327 330 331 333 333 334 334 335 336 336 335 333 331 329 328 327 326 326 325 325 326 325 324 323 321 319 316 312 311 311 309 308 310 312 311 311 312 313 312 312 312 312 313 312 310
204 203 201 199 198 196 194 193 191 190 189 190 191 191 193 193 192 194 196 199 204 206 211 215 216 222 228 236 247 256 268 280 290 300 307 312 316 319 323 326 329 330 331 332 332 333 334 335 335 335 333 332 330 329 329 328 328 327 326 327 327 326 325 323 320 318 316 313 312 310 309 308 309 310 310 311 312 313 313 314 313 312 311 310 308
205 204 202 201 199 197 196 195 192 191 191 191 192 192 192 193 193 196 199 202 206 208 211 213 214 221 229 237 250 262 275 286 294 302 308 312 316 321 325 327 328 328 328 329 330 332 334 334 334 334 332 331 331 331 330 329 328 327 327 328 327 326 326 325 322 319 317 314 310 308 308 310 309 309 311 313 314 313 313 312 312 311 309 308 306
206 204 202 201 200 198 197 195 193 193 192 192 193 193 193 195 196 198 201 203 206 208 210 212 215 223 233 244 257 268 280 290 298 304 308 313 318 322 324 324 324 324 325 327 330 332 333 334 333 333 332 332 332 332 330 330 329 329 328 327 326 326 325 326 327 326 322 316 310 309 310 312 311 311 313 314 312 310 310 309 308 307 307 307 306
206 204 203 201 200 198 197 195 195 195 194 193 194 194 195 197 198 200 202 204 207 208 210 213 218 226 239 252 264 275 286 294 301 306 309 314 318 320 320 320 320 321 323 328 331 332 333 334 334 333 333 334 334 333 332 331 329 328 327 326 325 325 326 329 330 327 323 320 315 313 313 313 313 312 312 311 309 307 307 306 305 306 306 307 307
207 205 203 202 201 199 198 197 196 196 196 195 195 196 197 198 199 201 203 204 207 210 213 216 221 230 242 256 269 280 291 298 302 306 309 313 315 315 316 317 318 321 325 329 331 332 333 334 334 334 334 335 336 336 334 331 328 327 326 325 325 326 328 330 329 326 324 323 320 317 314 314 316 314 311 309 307 306 307 307 307 308 308 306 306
208 205 204 203 201 200 199 199 198 197 197 197 197 197 199 199 200 202 203 205 208 211 215 220 225 234 244 258 272 284 294 299 302 305 309 311 312 312 314 316 319 322 326 329 331 333 334 336 336 335 335 337 337 336 334 330 328 326 326 326 327 327 328 329 327 327 328 326 322 319 317 317 319 317 315 312 310 311 313 311 310 311 308 305 304
208 206 204 203 202 201 199 199 199 198 198 199 199 199 199 199 200 201 202 206 209 212 217 223 230 239 249 261 275 287 294 298 300 304 307 309 310 312 314 317 320 323 326 329 332 334 335 337 338 337 336 336 336 334 333 331 329 329 329 328 328 328 329 329 329 330 331 328 325 323 321 321 321 320 320 319 318 319 317 313 313 313 309 306 305
209 207 205 204 202 201 200 199 200 200 200 200 200 200 200 199 200 201 203 207 211 214 219 224 232 241 253 267 280 288 292 295 299 303 306 308 309 311 315 318 321 324 327 330 333 334 335 337 339 338 336 335 334 334 334 333 332 331 329 328 328 329 331 330 328 328 328 328 327 327 327 327 326 325 326 326 325 324 322 318 317 315 311 309 309
209 207 205 203 201 201 200 199 199 201 202 202 200 200 200 200 201 202 204 207 211 216 221 225 232 242 256 271 281 286 289 293 298 302 305 307 309 313 316 320 322 325 328 331 333 334 335 337 339 337 335 334 335 335 334 335 334 331 329 329 329 328 327 325 325 326 326 327 329 329 329 330 330 330 331 331 330 329 326 323 321 318 314 312 311
208 205 204 202 201 201 200 199 199 200 201 202 201 200 200 201 202 203 205 208 211 215 221 226 234 247 260 271 279 283 287 293 298 302 305 307 311 315 318 321 324 326 328 331 332 333 335 336 338 337 336 337 337 336 335 336 334 332 333 333 329 324 322 323 327 329 329 328 329 329 330 333 334 334 333 332 331 330 328 326 324 321 318 314 312
208 206 204 203 203 202 200 199 199 200 200 201 201 201 201 201 203 205 206 209 212 216 222 228 237 251 262 270 277 282 288 294 298 302 306 310 314 317 319 321 324 325 328 330 332 333 335 336 337 338 338 338 336 334 334 335 334 334 336 336 331 329 328 328 329 330 329 329 330 331 334 336 335 333 333 332 332 331 329 327 326 324 320 316 314
208 206 205 204 203 202 201 200 200 200 201 201 201 202 203 202 203 206 208 212 215 218 223 231 243 254 261 267 275 283 290 294 299 304 308 312 314 315 318 321 324 326 328 330 331 333 335 337 338 338 337 335 333 333 333 333 333 335 337 337 335 334 332 331 332 331 331 333 334 334 335 335 334 333 333 333 333 333 331 329 328 327 323 319 317
207 205 205 204 203 202 202 201 201 201 201 202 202 202 203 204 205 207 210 213 218 225 234 242 247 252 257 265 275 284 291 296 302 307 309 311 312 314 318 322 324 326 328 330 332 334 336 337 336 335 334 333 332 332 332 332 333 334 335 336 335 335 335 335 336 337 337 338 337 334 334 335 334 334 334 334 333 332 331 331 330 330 326 321 318
207 205 205 204 203 203 202 201 202 202 202 203 203 204 205 206 206 208 212 220 232 242 244 244 244 248 256 267 277 286 292 297 302 305 306 309 312 315 319 323 324 327 329 331 333 334 335 335 334 333 332 332 331 330 328 328 330 333 335 336 337 339 341 342 343 343 341 339 337 336 336 337 337 336 334 332 331 331 333 333 332 331 330 325 321
206 205 205 204 204 204 203 203 203 202 202 203 204 205 205 205 208 217 229 240 245 244 240 239 243 249 259 270 279 287 292 295 299 302 304 309 313 317 321 323 326 328 330 331 332 333 334 335 334 333 332 331 329 328 326 327 329 332 337 340 341 344 347 349 348 345 342 340 339 339 339 339 339 337 334 333 333 335 336 335 333 333 333 331 326
207 206 206 205 205 204 205 205 203 202 203 204 203 202 204 212 227 240 246 244 240 236 236 239 245 252 263 274 282 288 292 295 299 304 308 311 316 320 323 325 327 328 329 330 332 334 336 336 334 332 329 326 325 325 327 329 331 333 337 342 345 348 351 352 350 346 344 343 341 340 341 342 340 337 336 337 338 339 339 339 337 335 335 334 330
209 208 207 207 206 206 205 205 204 204 203 202 202 208 223 239 247 244 240 237 234 234 237 240 246 256 268 277 284 290 295 299 304 308 312 316 320 323 326 326 327 328 330 332 334 335 335 334 332 329 326 323 323 326 329 332 335 338 340 343 346 349 351 350 348 347 347 345 341 342 344 343 340 340 340 341 341 342 343 343 340 338 338 337 334
209 209 209 208 207 207 206 205 205 205 203 203 213 231 243 244 239 235 233 234 234 235 238 242 251 263 272 280 288 294 298 302 307 311 316 320 322 324 326 326 326 328 331 333 334 334 334 334 332 329 327 326 327 330 331 332 335 339 341 343 345 347 350 351 349 348 348 346 344 345 345 343 343 344 343 343 343 345 347 346 343 342 342 341 340
209 210 210 209 209 208 207 206 205 204 207 217 232 241 238 232 230 231 232 232 232 236 241 247 256 266 275 283 291 296 300 304 309 313 317 319 322 324 325 325 326 328 330 332 334 334 334 334 332 330 330 330 331 333 334 334 335 337 339 342 345 347 349 351 351 349 348 346 345 346 347 346 346 346 346 345 345 346 348 349 347 347 347 346 345
212 212 211 211 210 209 208 208 206 208 217 230 238 236 231 228 228 229 230 231 233 237 243 249 257 267 278 286 291 296 302 307 311 314 316 318 321 324 324 323 325 328 330 333 335 335 334 334 334 333 332 333 334 335 337 339 339 339 338 339 342 345 348 350 351 350 348 345 345 347 349 349 348 347 348 348 346 345 348 351 351 350 350 350 349
215 215 214 212 211 210 210 209 211 217 228 235 233 229 227 226 226 226 228 231 234 237 242 248 257 267 276 284 289 296 301 305 309 312 314 316 320 322 323 324 326 329 332 335 335 334 334 336 336 335 333 333 335 337 340 342 343 343 342 340 340 344 347 350 351 350 347 345 345 346 348 349 349 349 350 350 349 348 349 351 351 352 352 353 352
218 218 216 214 212 212 211 212 218 228 234 233 228 225 225 226 227 228 229 230 232 236 240 247 256 265 274 281 288 294 298 301 305 308 310 314 318 321 322 323 325 329 333 335 335 335 337 338 338 336 334 335 336 338 341 343 343 344 345 344 342 343 346 350 351 349 348 347 347 347 347 347 348 350 350 352 353 351 350 351 353 353 353 354 354
219 219 219 218 217 216 216 219 226 230 229 226 225 225 226 228 229 230 232 233 234 236 240 245 253 262 271 279 285 289 293 297 301 304 308 312 316 318 320 324 328 331 333 334 336 338 339 340 340 338 336 336 337 337 340 343 343 344 345 346 345 345 346 348 349 349 348 348 349 349 347 346 349 352 352 353 354 354 353 354 354 353 353 352 352
220 220 220 221 221 221 222 224 226 226 223 223 225 226 227 228 229 230 233 235 237 239 241 245 251 259 267 274 278 282 287 292 296 300 305 309 313 316 320 324 326 326 328 332 337 341 341 341 341 340 337 337 338 339 340 342 344 345 346 347 347 347 348 349 350 349 348 348 350 351 348 347 350 354 354 354 355 355 354 355 355 353 352 351 351
221 221 220 221 222 223 225 226 225 224 224 226 227 228 229 229 230 231 232 234 235 238 241 244 248 255 261 266 270 275 280 286 292 297 302 307 311 315 318 319 320 322 328 334 340 344 343 341 341 339 338 338 338 339 341 343 344 345 347 347 348 349 350 351 350 348 348 349 352 352 350 348 351 355 356 356 356 356 355 355 355 354 354 353 352
222 222 222 222 222 223 225 225 225 225 226 227 228 229 230 230 231 232 232 233 235 238 241 244 248 252 257 260 265 270 274 280 287 293 298 304 309 311 313 315 318 324 330 334 337 341 343 342 341 339 338 338 339 339 341 343 344 345 346 347 348 349 350 351 350 348 348 350 353 353 350 348 351 354 355 356 357 357 356 356 355 355 355 356 357
225 225 225 224 225 225 224 224 224 224 225 226 227 228 229 230 231 232 232 233 235 238 240 244 247 250 253 257 262 266 269 274 281 288 295 301 304 306 309 312 316 320 325 329 333 339 342 341 340 339 337 336 338 338 339 342 344 344 344 344 346 347 348 348 348 348 349 351 354 354 351 349 351 353 354 355 357 357 357 356 356 356 357 359 2
227 226 226 226 226 227 227 226 226 226 227 228 228 229 230 231 232 232 231 232 234 236 239 242 245 248 251 254 257 260 263 268 276 283 288 292 296 300 304 309 311 315 319 324 329 334 337 338 337 336 334 333 335 336 338 340 342 342 342 341 343 345 346 346 346 347 349 352 354 355 353 351 351 352 353 355 357 359 358 357 357 357 358 359 2
229 228 228 227 227 228 228 228 228 229 230 230 231 231 233 233 233 233 233 235 236 237 238 240 243 246 249 250 252 254 257 263 270 275 280 287 294 299 303 306 309 312 315 319 323 328 332 334 333 332 330 330 332 334 336 338 339 339 339 339 340 342 344 344 344 345 348 350 353 355 355 352 350 351 354 356 358 360 360 359 358 358 358 359 0
231 230 230 229 229 228 228 228 229 230 230 231 232 233 234 234 233 233 235 238 239 239 239 240 242 244 246 247 248 250 255 261 269 275 283 290 295 299 303 306 308 310 311 314 318 323 327 330 330 329 328 328 329 331 334 336 337 337 337 338 339 340 341 341 342 343 345 348 351 354 355 352 350 351 354 357 359 1 1 1 0 0 0 0 1
234 233 232 232 231 230 230 230 230 230 230 230 231 233 234 233 233 234 237 239 240 241 241 242 244 245 247 249 250 252 257 264 273 280 287 293 296 300 303 304 306 307 309 310 313 317 321 325 327 327 327 326 326 328 331 333 334 335 336 337 338 338 339 340 340 341 343 346 349 351 354 353 351 350 352 356 360 1 2 2 2 2 2 2 3
235 234 234 234 234 233 233 233 232 231 231 231 232 233 233 233 233 236 238 239 240 240 242 243 245 246 248 251 253 256 261 269 277 283 289 293 296 299 301 301 303 304 305 306 309 311 315 320 322 323 324 323 324 326 328 329 331 333 334 335 336 336 337 338 338 338 340 343 346 349 352 353 351 350 350 354 358 1 1 2 4 4 4 4 4
236 235 235 235 235 234 234 234 233 233 233 233 233 233 233 233 235 237 239 238 238 239 240 241 242 244 247 251 255 260 265 272 278 283 286 289 293 295 296 297 299 300 301 303 305 308 310 313 315 317 318 318 319 321 323 324 326 328 329 331 332 333 334 334 335 337 339 341 343 346 348 350 351 351 350 351 354 357 360 2 4 6 6 5 3
238 237 236 236 235 235 234 233 233 232 232 232 232 232 232 233 236 237 238 237 236 236 237 238 239 242 246 251 256 262 267 273 277 279 281 284 288 290 291 293 294 296 298 300 302 305 308 310 311 312 312 311 312 313 314 317 319 321 323 325 326 327 329 330 331 334 337 338 340 342 344 347 349 350 349 349 349 352 356 360 4 6 7 7 5
240 239 238 237 236 235 234 233 232 232 231 231 232 232 232 234 236 237 238 237 235 235 234 235 237 241 246 251 256 261 266 271 272 273 275 279 282 284 287 289 291 294 296 298 301 305 307 309 312 314 313 311 309 308 307 309 311 313 316 318 319 321 323 325 326 329 333 334 335 337 339 342 346 347 347 347 347 348 350 355 360 3 5 6 7
242 240 239 238 237 236 235 234 233 232 232 232 232 232 233 235 238 238 237 235 234 233 233 233 235 240 244 249 254 260 264 266 267 267 269 273 276 279 282 285 288 290 293 296 300 303 306 309 312 314 315 315 314 311 308 307 306 306 308 311 312 314 317 319 321 324 327 329 331 332 334 336 340 343 344 345 346 347 348 349 354 359 1 1 3
244 241 239 238 237 236 235 234 233 232 232 232 232 232 234 237 238 236 235 235 235 234 235 236 237 240 243 247 252 257 259 259 260 260 262 266 271 274 277 280 283 285 288 292 296 300 304 306 308 310 312 313 314 315 314 311 309 307 306 306 307 309 311 313 315 318 321 323 325 327 328 330 333 337 340 341 343 346 347 346 347 351 354 356 357
247 243 240 238 237 236 235 234 234 234 233 232 232 234 236 237 237 235 235 235 235 235 236 237 238 240 244 247 250 253 254 254 253 254 257 262 266 269 272 276 279 281 284 288 292 296 299 301 303 305 306 307 309 311 312 312 312 311 310 308 307 306 307 309 311 313 315 318 320 321 322 325 328 331 334 336 338 342 345 345 344 344 345 348 351
248 244 241 239 237 236 235 234 234 233 233 232 234 236 237 236 235 235 235 234 234 234 236 237 239 242 245 247 249 250 250 248 248 251 255 259 262 264 268 273 276 280 284 287 289 293 295 297 298 299 300 302 304 305 306 307 309 309 310 310 309 308 307 307 307 308 310 313 315 316 317 320 322 323 326 329 332 335 339 341 342 342 342 340 341
249 245 241 239 237 236 235 234 232 232 231 233 235 236 235 235 235 235 234 234 234 235 236 237 239 243 245 246 246 246 244 243 246 249 253 256 258 262 267 272 276 280 284 287 290 292 294 295 296 296 296 297 298 299 299 301 302 303 305 307 309 309 309 308 308 307 307 308 310 311 313 315 317 318 320 322 324 328 331 333 334 337 339 337 336